Tracking 18980 objects as of 18-Feb-2018
HD Live streaming from Space Station
objects crossing your sky now

COSMOS 1880

Track COSMOS 1880 now!
10-day predictions
COSMOS 1880 is classified as:


NORAD ID: 18339
Int'l Code: 1987-074F
Perigee: 1,400.9 km
Apogee: 1,414.4 km
Inclination: 82.6 °
Period: 113.8 minutes
Semi major axis: 7778 km
RCS: 1.0638 m2 (large)
Launch date: September 7, 1987
Source: Commonwealth of Independent States (former USSR) (CIS)
Launch site: PLESETSK MISSILE AND SPACE COMPLEX (PKMTR)
aabbcc
Your satellite tracking list
Your tracking list is empty




NASA's NSSDC Master Catalog

Two Line Element Set (TLE):
1 18339U 87074F   18049.20831134 -.00000002  00000-0 -67711-4 0  9994
2 18339  82.5585  59.0139 0008712 258.9464 175.2710 12.65458995406492
Source of the keplerian elements: AFSPC